Darstellungsparameter: Aktuell verwendete Einstellungen:
Skalierung der Graphiken ... ?
xyx+y,   Skalierungsfaktor:      Skalierung: Modus: x, Faktor: 1
Darstellungszeitraum ... ?
Vom - - bis: - -   Zeitraum: 10.05.2010 - 10.05.2010
Min/Max/Avg-Anzeige ... ?
Zeige MMA aktuell
Zeige MMA Monat
Zeige MMA alles
Zeige --A aktuell
Zeige --A Monat
Zeige --A alles
Keine MMA-Anzeige
MMA:
Average (ber die Originaldaten)
MMA-Basis: 10.05.2010 - 10.05.2010
Quicknavigation für Darstellung... ?
Tage:      1T, 2T, 3T, 5T -1T -2T -3T -5T +1T +2T +3T +5T
Wochen: 1W, 2W, 3W -1W -2W -3W +1W +2W +3W
Monate: 1M, 3M, 6M -1M -3M -6M +1M +3M +6M
Jahre:    1J, 3J, 5J, 10J -1J -3J -5J -10J +1J +3J +5J +10J
Nutze für die Darstellung ... ?
Originaldaten oder Mittelwerte auf ...
Stundenbasis Tagesbasis Wochenbasis
Monatsbasis Jahresbasis      Datenbasis: Original-Daten
Darstellen als:
Statistik (Auto) Statistik J:M      Darstellung:
Zur Graphik,    zurück zur Übersicht aller Sensoren.
 
Tabellarische Datenbersicht: ?
 
Sensor: Nr:Datum:Temp:Abs-Feuchte:Windchill:Wind:
Aussen-T/F 1 10-05-2010 00:02:05 10.4 C 7.13 g/m*3 10.4 C 0 km/h
2 10-05-2010 00:14:05 10.5 C 7.18 g/m*3 10.5 C 0 km/h
3 10-05-2010 00:26:05 10.3 C 7.09 g/m*3 10.3 C 0 km/h
4 10-05-2010 00:38:05 10.1 C 7.09 g/m*3 10.1 C 0 km/h
5 10-05-2010 00:50:05 9.8 C 7.24 g/m*3 9.8 C 0 km/h
6 10-05-2010 01:02:05 9.8 C 7.24 g/m*3 9.8 C 0 km/h
7 10-05-2010 01:14:05 9.8 C 7.33 g/m*3 9.8 C 0 km/h
8 10-05-2010 01:26:05 9.9 C 7.38 g/m*3 9.9 C 0 km/h
9 10-05-2010 01:38:05 10 C 7.24 g/m*3 10 C 0 km/h
10 10-05-2010 01:50:05 9.8 C 7.24 g/m*3 9.8 C 0 km/h
11 10-05-2010 02:02:05 9.7 C 7.19 g/m*3 9.7 C 0 km/h
12 10-05-2010 02:14:05 9.5 C 7.19 g/m*3 9.5 C 0 km/h
13 10-05-2010 02:26:05 9.4 C 7.24 g/m*3 9.4 C 0 km/h
14 10-05-2010 02:38:05 9.4 C 7.24 g/m*3 9.4 C 0 km/h
15 10-05-2010 02:50:05 9.4 C 7.33 g/m*3 9.4 C 0 km/h
16 10-05-2010 03:02:05 9.2 C 7.23 g/m*3 9.2 C 0 km/h
17 10-05-2010 03:14:05 9 C 7.14 g/m*3 9 C 0 km/h
18 10-05-2010 03:26:05 8.8 C 7.14 g/m*3 8.8 C 0 km/h
19 10-05-2010 03:38:05 8.7 C 7.18 g/m*3 8.7 C 0 km/h
20 10-05-2010 03:50:06 8.7 C 7.26 g/m*3 8.7 C 0 km/h
21 10-05-2010 04:02:06 8.6 C 7.22 g/m*3 8.6 C 0 km/h
22 10-05-2010 04:14:06 8.6 C 7.22 g/m*3 8.6 C 0 km/h
23 10-05-2010 04:26:06 8.6 C 7.3 g/m*3 8.6 C 0 km/h
24 10-05-2010 04:38:06 8.6 C 7.3 g/m*3 8.6 C 0 km/h
25 10-05-2010 04:50:06 8.7 C 7.26 g/m*3 8.7 C 0 km/h
Sensor: Nr:Datum:Temp:Abs-Feuchte:Windchill:Wind:
Aussen-T/F 26 10-05-2010 05:02:06 8.6 C 7.22 g/m*3 8.6 C 0 km/h
27 10-05-2010 05:14:06 8.6 C 7.22 g/m*3 8.6 C 0 km/h
28 10-05-2010 05:26:06 8.6 C 7.3 g/m*3 8.6 C 0 km/h
29 10-05-2010 05:38:06 8.7 C 7.35 g/m*3 8.7 C 0 km/h
30 10-05-2010 05:50:06 8.8 C 7.31 g/m*3 8.8 C 0 km/h
31 10-05-2010 06:02:06 8.7 C 7.26 g/m*3 8.7 C 0 km/h
32 10-05-2010 06:14:06 8.7 C 7.26 g/m*3 8.7 C 0 km/h
33 10-05-2010 06:26:06 8.8 C 7.31 g/m*3 8.8 C 0 km/h
34 10-05-2010 06:38:04 8.9 C 7.36 g/m*3 8.9 C 0 km/h
35 10-05-2010 06:50:02 9 C 7.32 g/m*3 9 C 0 km/h
36 10-05-2010 07:02:02 9.1 C 7.36 g/m*3 9.1 C 0 km/h
37 10-05-2010 07:14:02 9.4 C 7.51 g/m*3 9.4 C 0 km/h
38 10-05-2010 07:26:01 9.6 C 7.6 g/m*3 9.6 C 0 km/h
39 10-05-2010 07:38:02 9.8 C 7.7 g/m*3 9.8 C 0 km/h
40 10-05-2010 07:50:02 10.2 C 7.71 g/m*3 10.2 C 0 km/h
41 10-05-2010 08:02:02 10.5 C 7.76 g/m*3 10.5 C 0 km/h
42 10-05-2010 08:14:02 10.6 C 7.71 g/m*3 10.6 C 0 km/h
43 10-05-2010 08:26:02 10.7 C 7.66 g/m*3 10.7 C 0 km/h
44 10-05-2010 08:38:02 10.7 C 7.46 g/m*3 10.7 C 0 km/h
45 10-05-2010 08:50:02 10.7 C 7.37 g/m*3 10.7 C 0 km/h
46 10-05-2010 09:02:02 10.8 C 7.41 g/m*3 10.8 C 0 km/h
47 10-05-2010 09:14:03 10.8 C 7.22 g/m*3 10.8 C 0 km/h
48 10-05-2010 09:26:02 10.7 C 7.27 g/m*3 10.7 C 0 km/h
49 10-05-2010 09:38:02 11 C 7.21 g/m*3 11 C 0 km/h
50 10-05-2010 09:50:02 11.1 C 7.25 g/m*3 11.1 C 0 km/h
Sensor: Nr:Datum:Temp:Abs-Feuchte:Windchill:Wind:
Aussen-T/F 51 10-05-2010 10:02:02 11.1 C 7.15 g/m*3 11.1 C 0 km/h
52 10-05-2010 10:14:02 11.4 C 7.08 g/m*3 11.4 C 0 km/h
53 10-05-2010 10:26:03 11.2 C 7.1 g/m*3 11.2 C 0 km/h
54 10-05-2010 10:38:02 11.6 C 7.17 g/m*3 11.6 C 0 km/h
55 10-05-2010 10:50:02 11.4 C 6.98 g/m*3 11.4 C 0 km/h
56 10-05-2010 11:02:02 11.5 C 7.13 g/m*3 11.5 C 0 km/h
57 10-05-2010 11:14:02 11.5 C 7.02 g/m*3 11.5 C 0 km/h
58 10-05-2010 11:26:02 11.5 C 7.02 g/m*3 11.5 C 0 km/h
59 10-05-2010 11:38:02 11.3 C 7.04 g/m*3 11.3 C 0 km/h
60 10-05-2010 11:50:02 11.7 C 7.22 g/m*3 11.7 C 0 km/h
61 10-05-2010 12:02:03 11.7 C 7.11 g/m*3 11.7 C 0 km/h
62 10-05-2010 12:14:03 11.6 C 6.96 g/m*3 11.6 C 0 km/h
63 10-05-2010 12:26:02 12.7 C 7.01 g/m*3 12.7 C 0 km/h
64 10-05-2010 12:38:03 12.9 C 6.76 g/m*3 12.9 C 0 km/h
65 10-05-2010 12:50:02 14.1 C 6.8 g/m*3 14.1 C 0 km/h
66 10-05-2010 13:02:02 13.5 C 6.43 g/m*3 13.5 C 0 km/h
67 10-05-2010 13:14:02 13.5 C 6.43 g/m*3 13.5 C 0 km/h
68 10-05-2010 13:26:01 14.7 C 6.17 g/m*3 14.7 C 0 km/h
69 10-05-2010 13:38:02 15.3 C 6.4 g/m*3 15.3 C 0 km/h
70 10-05-2010 13:50:02 15.4 C 6.18 g/m*3 15.4 C 0 km/h
71 10-05-2010 14:02:02 15.3 C 6.01 g/m*3 15.3 C 0 km/h
72 10-05-2010 14:14:02 15.5 C 6.08 g/m*3 15.5 C 0 km/h
73 10-05-2010 14:26:02 14.8 C 5.95 g/m*3 14.8 C 0 km/h
74 10-05-2010 14:38:02 14.7 C 5.92 g/m*3 14.7 C 0 km/h
75 10-05-2010 14:50:02 14.7 C 5.92 g/m*3 14.7 C 0 km/h
Sensor: Nr:Datum:Temp:Abs-Feuchte:Windchill:Wind:
Aussen-T/F 76 10-05-2010 15:02:02 15 C 5.77 g/m*3 15 C 0 km/h
77 10-05-2010 15:14:02 15.4 C 5.78 g/m*3 15.4 C 0 km/h
78 10-05-2010 15:26:02 15.1 C 5.93 g/m*3 15.1 C 0 km/h
79 10-05-2010 15:38:02 15.3 C 5.62 g/m*3 15.3 C 0 km/h
80 10-05-2010 15:50:02 14.7 C 5.79 g/m*3 14.7 C 0 km/h
81 10-05-2010 16:02:02 15.2 C 5.84 g/m*3 15.2 C 0 km/h
82 10-05-2010 16:14:02 15.8 C 5.79 g/m*3 15.8 C 0 km/h
83 10-05-2010 16:26:02 15.7 C 5.49 g/m*3 15.7 C 0 km/h
84 10-05-2010 16:38:02 16.2 C 5.52 g/m*3 16.2 C 0 km/h
85 10-05-2010 16:50:02 16.3 C 5.13 g/m*3 16.3 C 0 km/h
86 10-05-2010 17:02:02 15.5 C 5.42 g/m*3 15.5 C 0 km/h
87 10-05-2010 17:14:02 15.6 C 5.45 g/m*3 15.6 C 0 km/h
88 10-05-2010 17:26:02 16 C 5.31 g/m*3 16 C 0 km/h
89 10-05-2010 17:38:02 16 C 5.31 g/m*3 16 C 0 km/h
90 10-05-2010 17:50:01 15.8 C 5.38 g/m*3 15.8 C 0 km/h
91 10-05-2010 18:02:02 16.4 C 5.02 g/m*3 16.4 C 0 km/h
92 10-05-2010 18:14:02 17.3 C 5.01 g/m*3 17.3 C 0 km/h
93 10-05-2010 18:26:02 17.6 C 5.1 g/m*3 17.6 C 0 km/h
94 10-05-2010 18:38:01 17.1 C 4.66 g/m*3 17.1 C 0 km/h
95 10-05-2010 18:50:02 15.8 C 4.71 g/m*3 15.8 C 0 km/h
96 10-05-2010 19:02:01 15.4 C 4.73 g/m*3 15.4 C 0 km/h
97 10-05-2010 19:14:01 15.6 C 4.92 g/m*3 15.6 C 0 km/h
98 10-05-2010 19:26:02 14.9 C 4.97 g/m*3 14.9 C 0 km/h
99 10-05-2010 19:38:01 14.7 C 5.04 g/m*3 14.7 C 0 km/h
100 10-05-2010 19:50:02 14.5 C 5.1 g/m*3 14.5 C 0 km/h
Sensor: Nr:Datum:Temp:Abs-Feuchte:Windchill:Wind:
Aussen-T/F 101 10-05-2010 20:02:01 14.5 C 4.97 g/m*3 14.5 C 0 km/h
102 10-05-2010 20:14:01 14.5 C 4.97 g/m*3 14.5 C 0 km/h
103 10-05-2010 20:26:02 14.3 C 5.04 g/m*3 14.3 C 0 km/h
104 10-05-2010 20:38:01 13.7 C 5.09 g/m*3 13.7 C 0 km/h
105 10-05-2010 20:50:02 13.1 C 5.14 g/m*3 13.1 C 0 km/h
106 10-05-2010 21:02:02 12.8 C 5.38 g/m*3 12.8 C 0 km/h
107 10-05-2010 21:14:02 12.3 C 5.43 g/m*3 12.3 C 0 km/h
108 10-05-2010 21:26:02 11.9 C 5.51 g/m*3 11.9 C 0 km/h
109 10-05-2010 21:38:02 11.6 C 5.4 g/m*3 11.6 C 0 km/h
110 10-05-2010 21:50:02 11.5 C 5.58 g/m*3 11.5 C 0 km/h
111 10-05-2010 22:02:02 11.5 C 5.68 g/m*3 11.5 C 0 km/h
112 10-05-2010 22:14:02 11.5 C 5.58 g/m*3 11.5 C 0 km/h
113 10-05-2010 22:27:04 11.2 C 5.57 g/m*3 11.2 C 0 km/h
114 10-05-2010 22:39:04 11.1 C 5.54 g/m*3 11.1 C 0 km/h
115 10-05-2010 22:51:04 11.8 C 5.79 g/m*3 11.8 C 0 km/h
116 10-05-2010 23:03:04 11.6 C 5.92 g/m*3 11.6 C 0 km/h
117 10-05-2010 23:15:05 11.2 C 5.68 g/m*3 11.2 C 0 km/h
118 10-05-2010 23:27:05 11.3 C 5.81 g/m*3 11.3 C 0 km/h
119 10-05-2010 23:39:05 11.4 C 5.85 g/m*3 11.4 C 0 km/h
120 10-05-2010 23:51:05 11.2 C 5.78 g/m*3 11.2 C 0 km/h

Legende:
   Min
   Max


Maximal/Minimal-Werte vom 10.05.2010 - 10.05.2010

Sensor Min Max Avg
Temp
(Aussen-T/F)
8.6 °C
10-05-2010  04:02:06
17.6 °C
10-05-2010  18:26:02
12 °C
Abs-Feuchte
(Aussen-T/F)
4.66 g/m*3
10-05-2010  18:38:01
7.76 g/m*3
10-05-2010  08:02:02
6.41 g/m*3
Windchill
(Aussen-T/F)
8.6 C
10-05-2010  04:02:06
17.6 C
10-05-2010  18:26:02
11.9 C

Die Daten stammen von einer Davis Vantage Pro 2 Wetter-Station und werden unter Linux mit der Software wview2wettercgi und aufbereitet. Alle Angaben erfolgen ohne Gewähr für ihre Vollständigkeit oder Richtigkeit.
Kontakt: Rainer Krienke krienke@uni-koblenz.de . Meine Webseiten an der Uni Koblenz oder privat.
Version: $Revision: 0.78 $